Weather History for HEAR - June, 2014

Change the Weather History Date:

Tuesday, June 3, 2014

  Actual Average Record
Temperature  
Mean Temperature 77 °F -  
Max Temperature 94 °F 87 °F - ()
Min Temperature 60 °F 64 °F - ()
Cooling Degree Days 12    
Growing Degree Days 27 (Base 50)    
Moisture  
Dew Point 55 °F    
Average Humidity 59    
Maximum Humidity 94    
Minimum Humidity 6    
Precipitation  
Precipitation 0.00 in 0.00 in - ()
Sea Level Pressure  
Sea Level Pressure 29.96 in    
Wind  
Wind Speed 3 mph ()    
Max Wind Speed 9 mph    
Max Gust Speed -    
Visibility 6.0 miles    
Events      
T = Trace of Precipitation, MM = Missing Value Source: Averaged Metar Reports

Daily Weather History Graph

Daily Weather History Graph

Search for Another Location

Airport or City:

Trip Planner

Search our weather history database for the weather conditions in past years. The results will help you decide how hot, cold, wet, or windy it might be!

Date:

Astronomy

Jun. 03, 2014 Rise Set
Actual Time 5:41 AM EEST 7:44 PM EEST
Civil Twilight 5:13 AM EEST 8:12 PM EEST
Nautical Twilight 4:40 AM EEST 8:45 PM EEST
Astronomical Twilight 4:04 AM EEST 9:21 PM EEST
Moon 10:32 AM EEST (6/3) 11:48 PM EEST (6/3)
Length of Visible Light 14h 58m
Length of Day
14h 03m
Waxing Crescent, 27% of the Moon is Illuminated
Jun 3
Waxing Crescent
Jun 5
First Quarter
Jun 13
Full
Jun 19
Last Quarter
Jun 27
New

Hourly Weather History & Observations

Time (EEST) Temp. Heat Index Dew Point Humidity Pressure Visibility Wind Dir Wind Speed Gust Speed Precip Events Conditions
12:00 AM 66 °F - 60 °F 74% 30.00 in 6 mi Calm Calm - -  
12:00 AM 66.2 °F - 59.0 °F 78% 29.98 in - Calm Calm - N/A   Clear
1:00 AM 64.4 °F - 59.0 °F 83% 29.98 in - Calm Calm - N/A   Clear
2:00 AM 64.4 °F - 59.0 °F 83% 29.98 in - SSE 4.6 mph - N/A   Clear
3:00 AM 64 °F - 59 °F 80% 29.97 in 6 mi SSE 4.6 mph - -  
3:00 AM 64.4 °F - 59.0 °F 83% 29.95 in - SSE 4.6 mph - N/A   Clear
4:00 AM 64.4 °F - 59.0 °F 83% 29.95 in - South 4.6 mph - N/A   Clear
5:00 AM 62.6 °F - 59.0 °F 88% 29.95 in - SSE 4.6 mph - N/A   Clear
6:00 AM 63 °F - 61 °F 91% 29.98 in 6 mi SSE 6.9 mph - -  
6:00 AM 62.6 °F - 60.8 °F 94% 29.98 in - SSE 6.9 mph - N/A   Clear
7:00 AM 66.2 °F - 60.8 °F 83% 29.98 in - SSE 5.8 mph - N/A   Clear
8:00 AM 71.6 °F - 60.8 °F 69% 29.98 in - Calm Calm - N/A   Clear
9:00 AM 78 °F - 50 °F 27% 29.98 in 6 mi South 6.9 mph - -   Clear
9:00 AM 78.8 °F - 50.0 °F 36% 29.98 in - South 6.9 mph - N/A   Clear
10:00 AM 84.2 °F - 37.4 °F 19% 29.95 in - South 6.9 mph - N/A   Clear
11:00 AM 87.8 °F - 35.6 °F 16% 29.95 in - South 5.8 mph - N/A   Clear
12:00 PM 90 °F - 32 °F 6% 29.97 in 6 mi SSE 2.3 mph - -   Clear
12:00 PM 91.4 °F - 32.0 °F 12% 29.95 in - SSE 2.3 mph - N/A   Clear
6:00 PM 83 °F - 55 °F 28% 29.94 in 6 mi NNE 9.2 mph - -   Clear
6:00 PM 82.4 °F 81.7 °F 55.4 °F 39% 29.92 in - NNE 9.2 mph - N/A   Clear
7:00 PM 78.8 °F - 59.0 °F 51% 29.92 in - NE 9.2 mph - N/A   Clear
8:00 PM 77.0 °F - 60.8 °F 57% 29.92 in - NNE 9.2 mph - N/A   Clear
9:00 PM 75 °F - 63 °F 57% 29.95 in 6 mi NNE 5.8 mph - -  
9:00 PM 75.2 °F - 62.6 °F 65% 29.95 in - NNE 5.8 mph - N/A   Clear
10:00 PM 73.4 °F - 62.6 °F 69% 29.95 in - ENE 2.3 mph - N/A   Clear
11:00 PM 73.4 °F - 59.0 °F 61% 29.92 in - Calm Calm - N/A   Clear